Location: Deep Valley
(39.7548°N, 80.4695°W)
Time: 14:46:41
(UTC+00:00)

ISS - Pass Details

Date: 27 November 2020
Orbit: 418 x 419 km, 51.6° (Epoch: 18 January)

Event Time Altitude Azimuth Distance (km) Brightness Sun altitude
Rises 22:23:45 0° 274° (W) 2,363 1.3 -5.1°
Reaches altitude 10° 22:26:19 10° 294° (WNW) 1,500 -0.3 -5.6°
Maximum altitude 22:28:43 18° 340° (NNW) 1,109 -1.6 -6.0°
Drops below altitude 10° 22:31:08 10° 26° (NNE) 1,502 -1.4 -6.5°
Enters shadow 22:32:16 - 37° (NE) 1,858 -1.0 -6.7°
